Flag for Germany Weather past 2 weeks in Garmisch-Partenkirchen, Bavaria, Germany

Now
46 °F

Partly cloudy.


Feels Like: 46 °F
Forecast: 43 / 68 °F
Wind: 2 mph from North

Location: Innsbruck-Flughafen


UV Index: 0 (Low)

Visibility: N/A


Pressure: 29.71 "Hg

Humidity: 76%

Dew point: 39 °F

Location of Garmisch-PartenkirchenLocation

Historic Weather in Garmisch-Partenkirchen

°F

Garmisch-Partenkirchen temperature yesterday

Maximum temperature yesterday: 59 °F (at 4:50 PM)
Minimum temperature yesterday: 34 °F (at 2:20 AM)
Average temperature yesterday: 45 °F

Past Weeks' High & Low Weather Summary

 TemperatureHumidityPressure
High72 °F (Apr 7, 3:50 PM)100% (Apr 7, 5:20 AM)30.33 "Hg (Apr 7, 5:20 AM)
Low32 °F (Apr 18, 5:50 AM)26% (Apr 14, 3:50 PM)29.71 "Hg (Apr 19, 4:50 PM)
Average49 °F73%30.06 "Hg
* Reported Apr 5 4:20 AM — Apr 20 4:50 AM, Garmisch-Partenkirchen, Weather by CustomWeather, © 2014

Note: Actual official high and low records may vary slightly from our data, if they occured in-between our weather recording intervals... More about our weather records

Advertising

Historic Weather Conditions — Data for Previous 24 hours

 ConditionsComfort  
Time TempWeatherWind HumidityBarometerVisibility
4:50 AM
Apr 20
46 °FPartly cloudy.2 mph82%29.71 "HgN/A
4:20 AM46 °FPartly cloudy.1 mph82%29.71 "HgN/A
3:50 AM46 °FPassing clouds.2 mph87%29.71 "HgN/A
3:20 AM46 °FPassing clouds.2 mph87%29.71 "HgN/A
2:50 AM48 °FOvercast.6 mph82%29.74 "HgN/A
2:20 AM48 °FPassing clouds.1 mph82%29.74 "HgN/A
1:50 AM48 °FPassing clouds.3 mph76%29.74 "HgN/A
1:20 AM48 °FOvercast.7 mph76%29.74 "HgN/A
12:50 AM48 °FOvercast.6 mph76%29.77 "HgN/A
12:20 AM48 °FPassing clouds.3 mph76%29.77 "HgN/A
11:50 PM
Apr 19
50 °FPassing clouds.5 mph71%29.77 "HgN/A
11:20 PM50 °FPassing clouds.5 mph71%29.77 "HgN/A
10:50 PM50 °FPassing clouds.6 mph71%29.77 "HgN/A
10:20 PM50 °FPassing clouds.8 mph71%29.77 "HgN/A
9:50 PM48 °FPassing clouds.6 mph76%29.77 "HgN/A
9:20 PM50 °FPassing clouds.6 mph76%29.77 "HgN/A
8:50 PM52 °FScattered clouds.5 mph72%29.77 "HgN/A
8:20 PM52 °FScattered clouds.5 mph72%29.74 "HgN/A
7:50 PM54 °FScattered clouds.5 mph67%29.74 "HgN/A
7:20 PM55 °FScattered clouds.6 mph63%29.74 "HgN/A
6:50 PM57 °FScattered clouds.6 mph59%29.74 "HgN/A
6:20 PM57 °FScattered clouds.7 mph55%29.74 "HgN/A
5:50 PM57 °FScattered clouds.9 mph55%29.74 "HgN/A
5:20 PM57 °FScattered clouds.7 mph55%29.71 "HgN/A
4:50 PM59 °FScattered clouds.8 mph55%29.71 "HgN/A
4:20 PM57 °FScattered clouds.9 mph55%29.74 "HgN/A
3:50 PM55 °FScattered clouds.6 mph63%29.74 "HgN/A
3:20 PM54 °FScattered clouds.5 mph58%29.77 "HgN/A
2:50 PM54 °FPassing clouds.9 mph63%29.77 "HgN/A
2:20 PM54 °FPassing clouds.8 mph63%29.77 "HgN/A
1:50 PM52 °FScattered clouds.8 mph62%29.77 "HgN/A
1:20 PM52 °FScattered clouds.9 mph67%29.80 "HgN/A
12:50 PM48 °FScattered clouds.8 mph66%29.80 "HgN/A
12:20 PM48 °FScattered clouds.8 mph66%29.83 "HgN/A
11:50 AM45 °FScattered clouds.3 mph71%29.83 "HgN/A
11:20 AM45 °FScattered clouds.5 mph71%29.83 "HgN/A
10:50 AM43 °FScattered clouds.8 mph81%29.83 "HgN/A
10:20 AM43 °FScattered clouds.10 mph76%29.83 "HgN/A
9:50 AM41 °FBroken clouds.6 mph81%29.83 "HgN/A
9:20 AM39 °FBroken clouds.9 mph87%29.83 "HgN/A
8:50 AM39 °FBroken clouds.8 mph87%29.83 "HgN/A
8:20 AM37 °FBroken clouds.8 mph93%29.83 "HgN/A
7:50 AM37 °FPartly sunny.7 mph93%29.83 "HgN/A
7:20 AM36 °FBroken clouds.6 mph93%29.83 "HgN/A
6:50 AM36 °FLight rain. Partly cloudy.5 mph93%29.83 "Hg6 mi
6:20 AM34 °FLight rain. Partly cloudy.2 mph100%29.83 "Hg4 mi
5:50 AM34 °FRain. Partly cloudy.1 mph93%29.83 "Hg4 mi
5:20 AM34 °FRain. Partly cloudy.No wind100%29.83 "Hg4 mi
Weather by CustomWeather, © 2014

See weather overview